Regional Weather Roundup
Issued by NWS Sterling, VA

Home | Current Version | Previous Version | Text Only | Print | Product List | Glossary On
Versions: 1 2 3 4 5 6 7 8 9 10 11 12 13 14 15 16 17 18 19 20 21 22 23 24 25 26 27 28
000
ASUS41 KLWX 090210
RWRLWX

REGIONAL WEATHER ROUNDUP
NATIONAL WEATHER SERVICE BALTIMORE MD/WASHINGTON DC
900 PM EST THU DEC 08 2016

Note: "FAIR" indicates few or no clouds below 12,000 feet
with no significant weather and/or obstructions to visibility.
 TC=TEMPERATURE CELSIUS

 * =Non NWS site. Station does not report precipitation (e.g. rain,
    snow, etc.), thunder, or fog.

DCZ001-MDZ009-015-VAZ040>042-051-053>054-090300-
WASHINGTON METRO

CITY           SKY/WX    TMP DP  RH WIND       PRES   REMARKS
WASHINGTON NAT PTCLDY    38  16  40 NW17      30.17R WCI  28
DULLES         PTCLDY    34  13  41 NW18G32   30.17R WCI  23
ANDREWS AFB    CLEAR     36  16  43 NW18      30.14R WCI  26
FT BELVOIR     CLEAR     37  13  38 NW21      30.16R WCI  26
QUANTICO       MOCLDY    38  15  39 N9        30.18R
COLLEGE PARK*  CLEAR     34  16  47 NW12G21   30.15R WCI  25
LEESBURG*      PTCLDY    34  19  55 NW22G29   30.19R WCI  22
MANASSAS*      CLEAR    N/A N/A N/A N12       30.18
GAITHERSBURG*  MOCLDY    30  12  47 NW7       30.19R

$$

MDZ006>007-011-014-090300-
BALTIMORE METRO

CITY           SKY/WX    TMP DP  RH WIND       PRES   REMARKS
BWI AIRPORT    PTCLDY    33  15  47 NW17G28   30.14R WCI  22
MD SCIENCE CTR   N/A     36  12  37 MISG      30.13R
MARTIN STATE   CLEAR     36  18  48 W17G26    30.15R WCI  25
ANNAPOLIS      CLEAR     39  19  44 NW15G25   30.15R
FORT MEADE*    CLEAR     34  18  51 NW8G20    30.17R WCI  27

$$

MDZ012-015-019>023-090300-
MARYLAND EASTERN SHORE

CITY           SKY/WX    TMP DP  RH WIND       PRES   REMARKS
OCEAN CITY     CLOUDY    40  24  53 NW12G17   30.08R
SALISBURY      CLOUDY    41  20  43 NW10      30.09R
BAY BRIDGE AP* CLEAR     37  19  48 NW20G29   30.14R WCI  27
EASTON*        MOCLDY    39  18  41 NW17G24   30.15R

$$

MDZ017>025-090300-
SOUTHERN MARYLAND

CITY           SKY/WX    TMP DP  RH WIND       PRES   REMARKS
PATUXENT RIVER CLOUDY    41  19  41 NW18G31   30.12R
ST INIGOES     MOCLDY    42  18  37 NW9       30.12R
LEONARDTOWN*   MOCLDY    37  18  44 NW9G16    30.14R

$$

MDZ003>005-090300-
NORTH CENTRAL MARYLAND

CITY           SKY/WX    TMP DP  RH WIND       PRES   REMARKS
FREDERICK*     NOT AVBL
HAGERSTOWN APT CLOUDY    31  13  47 NW14G23   30.16R WCI  21
WESTMINSTER*     N/A     30  12  47 W20G35    30.13R WCI  18

$$

MDZ501>502-090300-
WESTERN MARYLAND

CITY           SKY/WX    TMP DP  RH WIND       PRES   REMARKS
OAKLAND*       CLOUDY    18  10  73 NW12G23   30.08S WCI   5
CUMBERLAND*    NOT AVBL

$$

VAZ025>031-090300-
SHENANDOAH VALLEY

CITY           SKY/WX    TMP DP  RH WIND       PRES   REMARKS
WINCHESTER*    CLOUDY    32  14  47 W13G22    30.17R WCI  22
FRONT ROYAL*   CLOUDY    32  14  47 W3        30.16R
LURAY*         FAIR      34  19  55 NW9       30.16R WCI  26
NEW MARKET*    MOCLDY    33  11  41 NW9       30.16R WCI  25
STAUNTON*      CLEAR     31  13  47 W10       30.17S WCI  22
WAYNESBORO*    FAIR      32   9  39 W9        30.15R WCI  24

$$

WVZ021-048>050-054>055-090300-
EASTERN WEST VIRGINIA PANHANDLE

CITY           SKY/WX    TMP DP  RH WIND       PRES   REMARKS
MARTINSBURG    CLOUDY    32  13  45 W13G25    30.17R WCI  22
PETERSBURG*    CLOUDY    32  15  49 NW22G38   30.18S WCI  20

$$

VAZ036>039-050-090300-
CENTRAL FOOTHILLS

CITY           SKY/WX    TMP DP  RH WIND       PRES   REMARKS
CHARLOTTESVILL CLEAR     37  10  32 NW6       30.16R
CULPEPER*      CLEAR     37  15  39 NW7       30.17S
ORANGE*          N/A     36  18  48 CALM      30.18R
GORDONSVILLE*  FAIR      37  13  36 W6        30.15R
WARRENTON*     FAIR      35  10  34 NW10      30.16R WCI  28

$$

VAZ055>057-090300-
NORTH AND CENTRAL PIEDMONT

CITY           SKY/WX    TMP DP  RH WIND       PRES   REMARKS
FREDERICKSBRG* MOCLDY    38  18  42 NW9       30.15R
STAFFORD*      PTCLDY    35  17  48 NW9       30.20R WCI  28

$$

NCZ024-NYZ072-PAZ021-071-VAZ022-071-090300-
OTHER REGIONAL OBSERVATIONS

CITY           SKY/WX    TMP DP  RH WIND       PRES   REMARKS
NEW YORK CITY    N/A     37  18  44 MISG        N/A
PHILADELPHIA   PTCLDY    36  14  40 NW15G26   30.09R WCI  27
PITTSBURGH     FLURRIES  25  16  68 W8G21     30.21R WCI  16
ROANOKE        CLOUDY    35   9  33 NW17G25   30.22R WCI  25
RICHMOND       CLOUDY    43  19  38 NW12      30.14R
RALEIGH        CLOUDY    40  21  46 CALM      30.20R

$$

ANZ530>537-090300-
MARINE OBSERVATIONS

STATION/POSITION TIME  TEMP    WIND        PRES
                       AIR SEA DIR/SP/G
                 (UTC) (F)     (DEG/KT/KT) (MB)
THOMAS PT LIGHT  0200   38 48  310/ 20/ 24   N/A
BALT KEY BRIDGE  0142   36     290/ 24/ 30 1019.6R
COVE POINT       0142   41     340/ 20/ 27 1020.4R
LEWISETTA        0142   44 49  320/ 15/ 19 1019.9R
SOLOMONS ISLAND  0142   42 50  310/ 12/ 19   N/A
PINEY POINT      0142          350/ 18/ 21   N/A

$$





USA.gov is the U.S. government's official web portal to all federal, state and local government web resources and services.